Regional Weather Roundup
Issued by NWS Wilmington, NC

Home | Current Version | Previous Version | Text Only | Print | Product List | Glossary On
Versions: 1 2 3 4 5 6 7 8 9 10 11 12 13 14 15 16 17 18 19 20 21 22 23 24 25 26 27 28 29 30 31 32 33 34 35 36 37 38 39 40 41 42 43 44 45 46 47 48 49 50
000
ASUS42 KILM 040013
RWRILM
RWRILM
REGIONAL HOURLY WEATHER ROUNDUP
NATIONAL WEATHER SERVICE WILMINGTON NC
800 PM EDT THU SEP 03 2015

NOTE: "FAIR" INDICATES FEW OR NO CLOUDS BELOW 12,000 FEET WITH NO
SIGNIFICANT WEATHER AND/OR OBSTRUCTIONS TO VISIBILITY.

...............WFO WILMINGTON COUNTY WARNING AREA...............

......COASTAL NC AND SC COUNTIES......

CITY           SKY/WX    TMP DP  RH WIND       PRES   REMARKS
WILMINGTON     CLOUDY    76  69  79 SW5       29.89R
N MYRTLE BEACH MOCLDY    74  71  91 CALM      29.88F
MYRTLE BEACH   MOCLDY    75  70  83 SW7       29.90F

......INLAND NC AND SC COUNTIES.......

CITY           SKY/WX    TMP DP  RH WIND       PRES   REMARKS
LUMBERTON      PTCLDY    83  75  77 CALM      29.87S HX  90
ELIZABETHTOWN  PTCLDY    80  71  73 SE5       29.88S
WHITEVILLE     PTCLDY    77  69  77 S3        29.88S
FLORENCE       CLOUDY    85  75  72 SW14      29.88R HX  93
DARLINGTON     MOCLDY    82  73  74 CALM      29.89S

....................REST OF NORTH CAROLINA......................

.........EASTERN NC.........

CITY           SKY/WX    TMP DP  RH WIND       PRES   REMARKS
CAPE HATTERAS  PTCLDY    78  71  79 W5        29.88S
JACKSONVILLE   PTCLDY    79  70  73 S5        29.88R
MOREHEAD CITY  MOCLDY    79  76  90 SW5       29.88S
KENANSVILLE      N/A     76  73  88 CALM      29.89S
NEW BERN       PTCLDY    78  72  81 CALM      29.89R
ELIZABETH CITY PTCLDY    75  70  84 CALM      29.87R

.........CENTRAL NC.........

CITY           SKY/WX    TMP DP  RH WIND       PRES   REMARKS
RALEIGH DURHAM CLOUDY    79  71  76 CALM      29.90R
ROCKY MOUNT    PTCLDY    79  70  74 SE3       29.88R
ROANOKE RAPIDS NOT AVBL
FAYETTEVILLE   PTCLDY    83  72  69 SE3       29.87S
HOFFMAN        PTCLDY    82  71  68 NW1       29.88S

.........WESTERN NC.........

CITY           SKY/WX    TMP DP  RH WIND       PRES   REMARKS
CHARLOTTE      PTCLDY    84  59  42 N5        29.92R
GREENSBORO     MOCLDY    83  64  52 CALM      29.92R
HICKORY        NOT AVBL
BOONE          NOT AVBL
ASHEVILLE      NOT AVBL

.....................REST OF SOUTH CAROLINA.....................

.........EASTERN SC.........

CITY           SKY/WX    TMP DP  RH WIND       PRES   REMARKS
CHARLESTON     CLOUDY    80  74  81 SE3       29.90R
BEAUFORT MCAS  MOCLDY    82  76  81 CALM      29.89R
HILTON HEAD    MOCLDY    81  75  83 SE3       29.91R

.........CENTRAL SC.........

CITY           SKY/WX    TMP DP  RH WIND       PRES   REMARKS
COLUMBIA       MOCLDY    84  72  67 SW6       29.89S
ORANGEBURG     MOCLDY    82  73  74 CALM      29.90S
SUMTER SHAW    CLOUDY    82  72  71 SW2       29.87R

.........WESTERN SC.........

CITY           SKY/WX    TMP DP  RH WIND       PRES   REMARKS
GREENVILLE     NOT AVBL
ROCK HILL      PTCLDY    83  66  56 CALM      29.92R
ANDERSON       MOCLDY    82  68  62 NW3       29.92S
CLEMSON        NOT AVBL
GREENWOOD      CLEAR     78  73  84 SW5       29.93S


...................COASTAL AND OFFSHORE REPORTS..................

................LOCAL PIERS AND NC RESERVE................


STATION/POSITION TIME  SKY/WX   TEMP    WIND        PRES    VSBY
                                AIR SEA DIR/SP/G
                 (UTC)          (F)     (DEG/KT/KT) (MB)    (MI)
JOHNY MRCER PIER 2300            78 84  250/  4/  5 1011.3R
NC RESRV MASNBRO NOT AVBL
OCEAN CREST PIER NOT AVBL
SPRINGMAID  PIER 2300            77 83  170/  9/ 11 1012.4F


................COASTAL AND OFFSHORE BUOYS................


STATION/POSITION TIME  SKY/WX   TEMP    WIND        PRES    VSBY
                                AIR SEA DIR/SP/G
                 (UTC)          (F)     (DEG/KT/KT) (MB)    (MI)
DIMNDSHOAL 41025 2350            81 86  270/  4/  6 1011.9S
WVE H/P(F/S)=  1/12 SWL H/P/D(F/S/D)=  2/ 20/12

CAPE LOOKOUT     0000            80     240/  4/  4 1011.7F
ONSLOW BAY 41036 NOT AVBL
ONSLOW BAY 41064 2308            81 82  260/  6/  8 1012.1F
ONSLOW BAY 41159 2325               82                N/A
WVE H/P(F/S)=  2/ 7 WND WVE H/P(F/S)=  2/ 7

5SE WRITBC 41038 2308            78 82  250/  6/ 10 1011.9S
MASNBO INL 41110 2319               82                N/A
WVE H/P(F/S)=  2/ 3 WND WVE H/P(F/S)=  2/ 3

WILM HARBR 41108 2311               83                N/A
WVE H/P(F/S)=  2/ 3 WND WVE H/P(F/S)=  2/ 3

27SE WRITB 41037 2300            78 82  250/  6/  6   N/A
FRYING PAN 41013 2350            82 82  250/ 10/ 12 1012.3F
WVE H/P(F/S)=  2/ 3 WND WVE H/P(F/S)=  2/ 3 SWL H/P/D(F/S/D)=  2/ 90/ 8

SUNST NRSH 41024 2308            79     250/ 12/ 17 1011.7R
CAPRS NRSH 41029 2308            82     200/  8/ 12 1012.6R
EDISTO     41004 2350            81 84  170/  6/  8 1012.0R
WVE H/P(F/S)=  2/ 8 WND WVE H/P(F/S)=  2/ 4 SWL H/P/D(F/S/D)=  2/ 8



..........OFFSHORE BUOYS BEYOND 100 NM OFFSHORE...........
.....IN A TRIANGLE---HAT TO BERMUDA TO BAHAMAS TO HAT.....


STATION/POSITION TIME  SKY/WX   TEMP    WIND        PRES    VSBY
                                AIR SEA DIR/SP/G
                 (UTC)          (F)     (DEG/KT/KT) (MB)    (MI)
150E HAT   41001 2300            81 82  250/  2/  4 1011.5F
W BERMUDA  41048 2350            82 83  330/ 10/ 12 1010.8R
WVE H/P(F/S)=  2/ 5 WND WVE H/P(F/S)=  2/ 5 SWL H/P/D(F/S/D)=  2/ 70/12

ATLANTIC S 41049 2350            84 86  240/  8/ 10 1014.0R
WVE H/P(F/S)=  3/ 6 WND WVE H/P(F/S)=  2/ 3 SWL H/P/D(F/S/D)=  3/360/ 6

E BAHAMAS  41046 2350            84 88  180/  4/  6 1014.5R
WVE H/P(F/S)=  2/ 9 SWL H/P/D(F/S/D)=  2/ 70/ 9

NE BAHAMAS 41047 2350            84 86  320/  6/ 10 1012.5R
WVE H/P(F/S)=  2/12 SWL H/P/D(F/S/D)=  2/ 40/12

120E CANVRL41010 2320            84 86  230/  4/  6 1012.7F

END


USA.gov is the U.S. government's official web portal to all federal, state and local government web resources and services.